Weather History for Linton Municipal Airport, ND

Change the Weather History Date:

Tuesday, December 3, 2013

  Actual Average (KBIS) Record (KBIS)
Temperature  
Mean Temperature 16 °F 20 °F  
Max Temperature 23 °F 30 °F 60 °F (1916)
Min Temperature 10 °F 10 °F -20 °F (1897)
Degree Days  
Heating Degree Days 48 45  
Month to date heating degree days 133  
Since 1 July heating degree days 2119  
Cooling Degree Days 0 0  
Month to date cooling degree days 0  
Year to date cooling degree days 520  
Moisture  
Dew Point 14 °F    
Average Humidity 93    
Maximum Humidity 100    
Minimum Humidity 85    
Precipitation  
Precipitation 0.00 in 0.02 in 0.45 in (2010)
Month to date precipitation 0.05  
Year to date precipitation 17.41  
Snow  
Snow 0.00 in 0.30 in 5.60 in (2010)
Month to date snowfall 0.9  
Since 1 July snowfall 12.1  
Snow Depth -    
Sea Level Pressure  
Sea Level Pressure 29.84 in    
Wind  
Wind Speed 13 mph (NNE)    
Max Wind Speed 20 mph    
Max Gust Speed 26 mph    
Visibility 5 miles    
Events Fog    
T = Trace of Precipitation, MM = Missing Value Source: NWS Daily Summary

Daily Weather History Graph

Daily Weather History Graph

Search for Another Location

Airport:

Trip Planner

Search our weather history database for the weather conditions in past years. The results will help you decide how hot, cold, wet, or windy it might be!

Date:

Astronomy

Dec. 03, 2013 Rise Set
Actual Time 8:05 AM CST 4:55 PM CST
Civil Twilight 7:31 AM CST 5:30 PM CST
Nautical Twilight 6:53 AM CST 6:07 PM CST
Astronomical Twilight 6:17 AM CST 6:43 PM CST
Moon 8:35 AM CST (12/3) 6:02 PM CST (12/3)
Length of Visible Light 9h 58m
Length of Day
8h 50m
New Moon, 1% of the Moon is Illuminated
Dec 3
New Moon
Dec 9
First Quarter
Dec 17
Full
Dec 25
Last Quarter
Jan 1
New

Hourly Weather History & Observations

Time (CST) Temp. Windchill Dew Point Humidity Pressure Visibility Wind Dir Wind Speed Gust Speed Precip Events Conditions
12:15 AM 23.0 °F 12.4 °F 23.0 °F 100% 29.72 in 10.0 mi NNE 10.4 mph 19.6 mph N/A   Overcast
12:35 AM 23.0 °F 12.4 °F 23.0 °F 100% 29.72 in 10.0 mi NE 10.4 mph 20.7 mph N/A   Overcast
12:55 AM 23.0 °F 12.4 °F 23.0 °F 100% 29.73 in 10.0 mi NE 10.4 mph 19.6 mph N/A   Overcast
1:15 AM 23.0 °F 10.6 °F 23.0 °F 100% 29.73 in 10.0 mi NE 13.8 mph 17.3 mph N/A   Overcast
1:35 AM 23.0 °F 13.9 °F 23.0 °F 100% 29.74 in 10.0 mi NNE 8.1 mph - N/A   Overcast
1:55 AM 23.0 °F 11.7 °F 23.0 °F 100% 29.73 in 10.0 mi NE 11.5 mph - N/A   Overcast
2:15 AM 23.0 °F 11.1 °F 23.0 °F 100% 29.74 in 10.0 mi NE 12.7 mph - N/A   Overcast
2:35 AM 23.0 °F 12.4 °F 23.0 °F 100% 29.75 in 10.0 mi NNE 10.4 mph 18.4 mph N/A   Overcast
2:55 AM 23.0 °F 10.6 °F 23.0 °F 100% 29.76 in 10.0 mi NE 13.8 mph - N/A   Overcast
3:15 AM 21.2 °F 7.3 °F 21.2 °F 100% 29.74 in 10.0 mi NE 16.1 mph 26.5 mph N/A   Overcast
3:35 AM 21.2 °F 7.3 °F 21.2 °F 100% 29.74 in 10.0 mi NNE 16.1 mph 23.0 mph N/A   Overcast
3:55 AM 21.2 °F 7.3 °F 21.2 °F 100% 29.74 in 10.0 mi NE 16.1 mph 20.7 mph N/A   Overcast
4:15 AM 21.2 °F 8.9 °F 21.2 °F 100% 29.74 in 10.0 mi NNE 12.7 mph 23.0 mph N/A   Overcast
4:35 AM 19.4 °F 6.0 °F 19.4 °F 100% 29.74 in 10.0 mi NNE 13.8 mph 20.7 mph N/A   Overcast
4:55 AM 19.4 °F 5.0 °F 19.4 °F 100% 29.76 in 10.0 mi NNE 16.1 mph 23.0 mph N/A   Overcast
5:15 AM 19.4 °F 5.0 °F 19.4 °F 100% 29.76 in 10.0 mi NNE 16.1 mph 21.9 mph N/A   Overcast
5:35 AM 19.4 °F 5.5 °F 19.4 °F 100% 29.76 in 10.0 mi NNE 15.0 mph 23.0 mph N/A   Overcast
5:55 AM 19.4 °F 3.6 °F 19.4 °F 100% 29.76 in 10.0 mi NNE 19.6 mph 26.5 mph N/A   Overcast
6:15 AM 19.4 °F 4.5 °F 19.4 °F 100% 29.77 in 10.0 mi NNE 17.3 mph 23.0 mph N/A   Overcast
6:35 AM 19.4 °F 6.6 °F 19.4 °F 100% 29.78 in 10.0 mi NNE 12.7 mph 19.6 mph N/A   Overcast
6:55 AM 19.4 °F 6.0 °F 19.4 °F 100% 29.79 in 10.0 mi NNE 13.8 mph 20.7 mph N/A   Overcast
7:15 AM 19.4 °F 6.0 °F 19.4 °F 100% 29.79 in 10.0 mi NNE 13.8 mph 20.7 mph N/A   Overcast
7:35 AM 17.6 °F 3.2 °F 17.6 °F 100% 29.80 in 10.0 mi NNE 15.0 mph 21.9 mph N/A   Overcast
7:55 AM 17.6 °F 2.7 °F 17.6 °F 100% 29.80 in 10.0 mi NNE 16.1 mph 24.2 mph N/A   Overcast
8:15 AM 17.6 °F 3.7 °F 17.6 °F 100% 29.81 in 10.0 mi NNE 13.8 mph 25.3 mph N/A   Overcast
8:35 AM 17.6 °F 3.2 °F 17.6 °F 100% 29.81 in 10.0 mi NNE 15.0 mph 24.2 mph N/A   Overcast
8:55 AM 17.6 °F 2.7 °F 15.8 °F 93% 29.81 in 10.0 mi NNE 16.1 mph 23.0 mph N/A   Overcast
9:15 AM 17.6 °F 3.7 °F 15.8 °F 93% 29.82 in 6.0 mi NE 13.8 mph 20.7 mph N/A   Overcast
9:35 AM 17.6 °F 3.7 °F 15.8 °F 93% 29.83 in 5.0 mi NNE 13.8 mph 20.7 mph N/A   Overcast
9:55 AM 15.8 °F 1.4 °F 15.8 °F 100% 29.84 in 6.0 mi NNE 13.8 mph 20.7 mph N/A   Overcast
10:15 AM 15.8 °F 2.7 °F 15.8 °F 100% 29.85 in 6.0 mi NNE 11.5 mph 23.0 mph N/A   Overcast
10:35 AM 15.8 °F 2.1 °F 15.8 °F 100% 29.85 in 2.0 mi NNE 12.7 mph 18.4 mph N/A   Overcast
10:55 AM 15.8 °F 0.9 °F 15.8 °F 100% 29.85 in 1.8 mi NE 15.0 mph 24.2 mph N/A   Overcast
11:15 AM 15.8 °F 0.9 °F 14.0 °F 93% 29.86 in 1.5 mi NNE 15.0 mph 23.0 mph N/A   Overcast
11:35 AM 15.8 °F 0.9 °F 14.0 °F 93% 29.85 in 1.2 mi NNE 15.0 mph 20.7 mph N/A   Overcast
11:55 AM 15.8 °F 1.4 °F 14.0 °F 93% 29.85 in 2.0 mi NNE 13.8 mph 18.4 mph N/A   Overcast
12:15 PM 15.8 °F 0.3 °F 12.2 °F 86% 29.86 in 2.0 mi NNE 16.1 mph 24.2 mph N/A   Overcast
12:35 PM 15.8 °F 1.4 °F 12.2 °F 86% 29.88 in 1.0 mi NNW 13.8 mph 18.4 mph N/A   Overcast
12:55 PM 14.0 °F -2.0 °F 10.4 °F 86% 29.86 in 1.8 mi North 16.1 mph 23.0 mph N/A   Overcast
1:15 PM 14.0 °F -0.8 °F 10.4 °F 86% 29.87 in 2.0 mi North 13.8 mph - N/A   Overcast
1:35 PM 14.0 °F -3.4 °F 10.4 °F 86% 29.86 in 0.5 mi North 19.6 mph - N/A Fog Light Freezing Fog
1:55 PM 14.0 °F -3.0 °F 12.2 °F 93% 29.86 in 0.5 mi North 18.4 mph - N/A Fog Light Freezing Fog
2:15 PM 14.0 °F -0.2 °F 10.4 °F 86% 29.86 in 0.5 mi North 12.7 mph - N/A Fog Light Freezing Fog
2:35 PM 14.0 °F -0.8 °F 10.4 °F 86% 29.86 in 0.8 mi North 13.8 mph 18.4 mph N/A   Overcast
2:55 PM 14.0 °F -2.0 °F 10.4 °F 86% 29.87 in 0.8 mi North 16.1 mph 19.6 mph N/A   Overcast
3:15 PM 14.0 °F 0.5 °F 10.4 °F 86% 29.87 in 1.0 mi North 11.5 mph 18.4 mph N/A   Overcast
3:35 PM 14.0 °F -0.2 °F 10.4 °F 86% 29.87 in 1.2 mi North 12.7 mph - N/A   Overcast
3:55 PM 14.0 °F -0.8 °F 10.4 °F 86% 29.89 in 2.5 mi North 13.8 mph 20.7 mph N/A   Overcast
4:15 PM 14.0 °F -2.0 °F 10.4 °F 86% 29.88 in 4.0 mi North 16.1 mph 19.6 mph N/A   Mostly Cloudy
4:35 PM 14.0 °F -2.0 °F 10.4 °F 86% 29.88 in 3.0 mi North 16.1 mph 19.6 mph N/A   Overcast
4:55 PM 14.0 °F -0.2 °F 10.4 °F 86% 29.88 in 3.0 mi North 12.7 mph 19.6 mph N/A   Overcast
5:15 PM 14.0 °F -0.8 °F 10.4 °F 86% 29.86 in 2.5 mi North 13.8 mph 19.6 mph N/A   Overcast
5:35 PM 14.0 °F -0.8 °F 10.4 °F 86% 29.86 in 2.5 mi North 13.8 mph - N/A   Overcast
5:55 PM 14.0 °F -2.0 °F 10.4 °F 86% 29.89 in 2.0 mi North 16.1 mph 19.6 mph N/A   Overcast
6:15 PM 14.0 °F -0.8 °F 10.4 °F 86% 29.92 in 3.0 mi NNW 13.8 mph 18.4 mph N/A   Overcast
6:35 PM 14.0 °F -1.4 °F 10.4 °F 86% 29.93 in 3.0 mi North 15.0 mph 21.9 mph N/A   Overcast
6:55 PM 14.0 °F 0.5 °F 10.4 °F 86% 29.92 in 2.0 mi North 11.5 mph - N/A   Overcast
7:15 PM 12.2 °F -3.1 °F 10.4 °F 92% 29.92 in 1.2 mi North 13.8 mph 24.2 mph N/A   Overcast
7:35 PM 12.2 °F -3.1 °F 10.4 °F 92% 29.92 in 1.0 mi North 13.8 mph 19.6 mph N/A   Overcast
7:55 PM 10.4 °F -5.4 °F 8.6 °F 92% 29.92 in 1.2 mi North 13.8 mph - N/A   Overcast
8:15 PM 10.4 °F -5.4 °F 8.6 °F 92% 29.91 in 1.5 mi North 13.8 mph - N/A   Overcast
8:35 PM 10.4 °F -4.8 °F 8.6 °F 92% 29.91 in 2.0 mi North 12.7 mph - N/A   Overcast
8:55 PM 10.4 °F -4.1 °F 8.6 °F 92% 29.91 in 2.5 mi North 11.5 mph - N/A   Overcast
9:15 PM 10.4 °F -4.8 °F 8.6 °F 92% 29.90 in 3.0 mi North 12.7 mph - N/A   Overcast
9:35 PM 10.4 °F -6.6 °F 6.8 °F 85% 29.90 in 7.0 mi North 16.1 mph - N/A   Overcast
9:55 PM 10.4 °F -7.2 °F 6.8 °F 85% 29.91 in 10.0 mi North 17.3 mph 23.0 mph N/A   Overcast
10:15 PM 10.4 °F -6.0 °F 6.8 °F 85% 29.92 in 8.0 mi North 15.0 mph - N/A   Overcast
10:35 PM 10.4 °F -4.1 °F 8.6 °F 92% 29.92 in 1.0 mi NNW 11.5 mph 17.3 mph N/A   Overcast
10:55 PM 10.4 °F -4.8 °F 8.6 °F 92% 29.92 in 1.0 mi North 12.7 mph 17.3 mph N/A   Overcast
11:15 PM 10.4 °F -3.3 °F 8.6 °F 92% 29.91 in 1.2 mi NNW 10.4 mph - N/A   Overcast
11:35 PM 10.4 °F -4.8 °F 8.6 °F 92% 29.91 in 1.2 mi NNW 12.7 mph - N/A   Overcast
11:55 PM 10.4 °F -4.8 °F 8.6 °F 92% 29.91 in 1.8 mi NNW 12.7 mph 17.3 mph N/A   Overcast